| time (UTC) | temp C | wind direction | speed KPH | gust KPH | rain 1hr cm | rain 24hr cm | rain mn cm | humidity % | barometer mb |
| 20260507203023 | 23 | 133 | 1.6 | 4.8 | 0.00 | 0.00 | 0.00 | 47 | 1014.6 |
| 20260507202523 | 23 | 120 | 1.6 | 8.0 | 0.00 | 0.00 | 0.00 | 47 | 1014.7 |
| 20260507202019 | 23 | 137 | 1.6 | 8.0 | 0.00 | 0.00 | 0.00 | 48 | 1014.8 |
| 20260507201516 | 23 | 117 | 1.6 | 6.4 | 0.00 | 0.00 | 0.00 | 46 | 1014.8 |
| 20260507201013 | 23 | 143 | 1.6 | 8.0 | 0.00 | 0.00 | 0.00 | 49 | 1015.0 |
| 20260507200732 | 23 | 115 | 1.6 | 6.4 | 0.00 | 0.00 | 0.00 | 48 | 1014.9 |
| 20260507200212 | 23 | 129 | 0.0 | 6.4 | 0.00 | 0.00 | 0.00 | 49 | 1015.1 |
| 20260507195428 | 23 | 14 | 0.0 | 3.2 | 0.00 | 0.00 | 0.00 | 45 | 1015.0 |
| 20260507194927 | 23 | 134 | 1.6 | 4.8 | 0.00 | 0.00 | 0.00 | 48 | 1015.2 |
| 20260507194427 | 23 | 69 | 1.6 | 4.8 | 0.00 | 0.00 | 0.00 | 46 | 1015.3 |
| 20260507193925 | 23 | 185 | 1.6 | 6.4 | 0.00 | 0.00 | 0.00 | 48 | 1015.4 |
| 20260507193427 | 23 | 162 | 1.6 | 8.0 | 0.00 | 0.00 | 0.00 | 50 | 1015.4 |
| 20260507192902 | 23 | 160 | 1.6 | 8.0 | 0.00 | 0.00 | 0.00 | 50 | 1015.5 |
| 20260507192334 | 22 | 350 | 1.6 | 8.0 | 0.00 | 0.00 | 0.00 | 48 | 1015.5 |
| 20260507191811 | 22 | 25 | 1.6 | 8.0 | 0.00 | 0.00 | 0.00 | 49 | 1015.7 |
| 20260507191243 | 23 | 131 | 1.6 | 4.8 | 0.00 | 0.00 | 0.00 | 49 | 1015.6 |
| 20260507190739 | 22 | 93 | 3.2 | 11.3 | 0.00 | 0.00 | 0.00 | 49 | 1015.6 |
| 20260507190239 | 22 | 112 | 3.2 | 14.5 | 0.00 | 0.00 | 0.00 | 51 | 1015.7 |
| 20260507185734 | 21 | 27 | 3.2 | 14.5 | 0.00 | 0.00 | 0.00 | 51 | 1015.7 |
| 20260507185232 | 21 | 323 | 3.2 | 14.5 | 0.00 | 0.00 | 0.00 | 46 | 1015.7 |
| 20260507184703 | 21 | 358 | 1.6 | 11.3 | 0.00 | 0.00 | 0.00 | 52 | 1015.7 |
| 20260507184201 | 21 | 11 | 3.2 | 12.9 | 0.00 | 0.00 | 0.00 | 51 | 1015.8 |
| 20260507183635 | 21 | 128 | 3.2 | 16.1 | 0.00 | 0.00 | 0.00 | 51 | 1015.9 |
| 20260507183338 | 21 | 330 | 4.8 | 16.1 | 0.00 | 0.00 | 0.00 | 49 | 1016.0 |
| 20260507182605 | 21 | 46 | 6.4 | 16.1 | 0.00 | 0.00 | 0.00 | 52 | 1016.1 |
| 20260507182037 | 20 | 76 | 6.4 | 16.1 | 0.00 | 0.00 | 0.00 | 51 | 1016.2 |
| 20260507181531 | 20 | 317 | 4.8 | 14.5 | 0.00 | 0.00 | 0.00 | 50 | 1016.2 |
| 20260507181030 | 20 | 72 | 4.8 | 14.5 | 0.00 | 0.00 | 0.00 | 50 | 1016.4 |
| 20260507180505 | 20 | 60 | 4.8 | 14.5 | 0.00 | 0.00 | 0.00 | 47 | 1016.4 |
| 20260507180224 | 21 | 37 | 3.2 | 14.5 | 0.00 | 0.00 | 0.00 | 49 | 1016.6 |
| 20260507175708 | 21 | 91 | 1.6 | 12.9 | 0.00 | 0.00 | 0.00 | 52 | 1016.6 |
| 20260507174950 | 20 | 34 | 3.2 | 12.9 | 0.00 | 0.00 | 0.00 | 51 | 1016.6 |
| 20260507174442 | 20 | 47 | 4.8 | 12.9 | 0.00 | 0.00 | 0.00 | 51 | 1016.8 |
| 20260507173939 | 20 | 297 | 3.2 | 12.9 | 0.00 | 0.00 | 0.00 | 49 | 1016.8 |
| 20260507173436 | 20 | 63 | 3.2 | 12.9 | 0.00 | 0.00 | 0.00 | 54 | 1016.9 |
| 20260507172933 | 20 | 79 | 3.2 | 12.9 | 0.00 | 0.00 | 0.00 | 52 | 1017.0 |
| 20260507172407 | 20 | 358 | 3.2 | 9.7 | 0.00 | 0.00 | 0.00 | 53 | 1017.1 |
| 20260507171840 | 20 | 342 | 1.6 | 9.7 | 0.00 | 0.00 | 0.00 | 54 | 1017.3 |
| 20260507171555 | 20 | 11 | 1.6 | 9.7 | 0.00 | 0.00 | 0.00 | 51 | 1017.5 |
| 20260507170835 | 20 | 266 | 1.6 | 8.0 | 0.00 | 0.00 | 0.00 | 55 | 1017.6 |
| 20260507170311 | 20 | 343 | 1.6 | 9.7 | 0.00 | 0.00 | 0.00 | 56 | 1017.8 |
| 20260507165805 | 19 | 134 | 3.2 | 9.7 | 0.00 | 0.00 | 0.00 | 57 | 1017.8 |
| 20260507165306 | 19 | 70 | 3.2 | 11.3 | 0.00 | 0.00 | 0.00 | 54 | 1017.9 |
| 20260507164956 | 19 | 5 | 3.2 | 11.3 | 0.00 | 0.00 | 0.00 | 55 | 1018.0 |
| 20260507164234 | 19 | 74 | 1.6 | 6.4 | 0.00 | 0.00 | 0.00 | 56 | 1018.0 |
| 20260507163705 | 19 | 292 | 1.6 | 9.7 | 0.00 | 0.00 | 0.00 | 56 | 1018.2 |
| 20260507163204 | 18 | 51 | 3.2 | 9.7 | 0.00 | 0.00 | 0.00 | 55 | 1018.2 |
| 20260507162859 | 18 | 204 | 1.6 | 11.3 | 0.00 | 0.00 | 0.00 | 58 | 1018.2 |
| 20260507162132 | 18 | 340 | 3.2 | 11.3 | 0.00 | 0.00 | 0.00 | 60 | 1018.3 |
| 20260507161605 | 18 | 309 | 4.8 | 11.3 | 0.00 | 0.00 | 0.00 | 58 | 1018.2 |
| 20260507161302 | 18 | 77 | 4.8 | 11.3 | 0.00 | 0.00 | 0.00 | 58 | 1018.2 |
| 20260507160511 | 18 | 56 | 3.2 | 9.7 | 0.00 | 0.00 | 0.00 | 59 | 1018.2 |
| 20260507160011 | 18 | 333 | 1.6 | 9.7 | 0.00 | 0.00 | 0.00 | 57 | 1018.2 |
| 20260507155930 | 18 | 321 | 1.6 | 6.4 | 0.00 | 0.00 | 0.00 | 58 | 1018.2 |
| 20260507154937 | 18 | 60 | 1.6 | 6.4 | 0.00 | 0.00 | 0.00 | 60 | 1018.2 |
| 20260507154435 | 18 | 48 | 1.6 | 9.7 | 0.00 | 0.00 | 0.00 | 63 | 1018.3 |
| 20260507153935 | 17 | 4 | 1.6 | 9.7 | 0.00 | 0.00 | 0.00 | 58 | 1018.4 |
| 20260507153406 | 17 | 37 | 1.6 | 8.0 | 0.00 | 0.00 | 0.00 | 60 | 1018.5 |
| 20260507152905 | 17 | 345 | 1.6 | 9.7 | 0.00 | 0.00 | 0.00 | 63 | 1018.5 |
| 20260507152407 | 17 | 49 | 1.6 | 9.7 | 0.00 | 0.00 | 0.00 | 61 | 1018.7 |
| 20260507151829 | 17 | 9 | 1.6 | 8.0 | 0.00 | 0.00 | 0.00 | 63 | 1018.6 |
| 20260507151327 | 17 | 289 | 1.6 | 8.0 | 0.00 | 0.00 | 0.00 | 63 | 1018.6 |
| 20260507150800 | 17 | 39 | 3.2 | 8.0 | 0.00 | 0.00 | 0.00 | 64 | 1018.8 |
| 20260507150259 | 16 | 48 | 3.2 | 8.0 | 0.00 | 0.00 | 0.00 | 65 | 1018.7 |
| 20260507145732 | 16 | 320 | 3.2 | 11.3 | 0.00 | 0.00 | 0.00 | 64 | 1018.7 |
| 20260507145235 | 16 | 26 | 3.2 | 11.3 | 0.00 | 0.00 | 0.00 | 66 | 1018.8 |
| 20260507144728 | 16 | 319 | 3.2 | 9.7 | 0.00 | 0.00 | 0.00 | 67 | 1018.8 |
| 20260507144225 | 16 | 351 | 1.6 | 8.0 | 0.00 | 0.00 | 0.00 | 65 | 1018.8 |
| 20260507143700 | 16 | 325 | 1.6 | 9.7 | 0.00 | 0.00 | 0.00 | 68 | 1018.9 |
| 20260507143159 | 16 | 314 | 1.6 | 9.7 | 0.00 | 0.00 | 0.00 | 68 | 1018.9 |
| 20260507142700 | 16 | 326 | 1.6 | 6.4 | 0.00 | 0.00 | 0.00 | 69 | 1018.9 |
| 20260507142135 | 16 | 52 | 0.0 | 4.8 | 0.00 | 0.00 | 0.00 | 70 | 1018.9 |
| 20260507141631 | 15 | 325 | 1.6 | 4.8 | 0.00 | 0.00 | 0.00 | 72 | 1018.9 |
| 20260507141120 | 15 | 321 | 1.6 | 6.4 | 0.00 | 0.00 | 0.00 | 71 | 1019.0 |
| 20260507140621 | 15 | 326 | 1.6 | 6.4 | 0.00 | 0.00 | 0.00 | 71 | 1019.2 |
| 20260507140116 | 15 | 53 | 0.0 | 3.2 | 0.00 | 0.00 | 0.00 | 74 | 1019.2 |
| 20260507135616 | 15 | 259 | 0.0 | 1.6 | 0.00 | 0.00 | 0.00 | 76 | 1019.3 |
| 20260507135053 | 15 | 343 | 0.0 | 1.6 | 0.00 | 0.00 | 0.00 | 77 | 1019.3 |
| 20260507134549 | 15 | 329 | 0.0 | 0.0 | 0.00 | 0.00 | 0.00 | 81 | 1019.3 |
| 20260507134046 | 14 | 329 | 0.0 | 3.2 | 0.00 | 0.00 | 0.00 | 81 | 1019.3 |
| 20260507133545 | 13 | 343 | 0.0 | 3.2 | 0.00 | 0.00 | 0.00 | 81 | 1019.4 |
| 20260507133044 | 13 | 343 | 0.0 | 3.2 | 0.00 | 0.00 | 0.00 | 80 | 1019.3 |
| 20260507132520 | 13 | 343 | 0.0 | 4.8 | 0.00 | 0.00 | 0.00 | 81 | 1019.3 |
| 20260507131956 | 13 | 343 | 0.0 | 4.8 | 0.00 | 0.00 | 0.00 | 81 | 1019.3 |
| 20260507131437 | 13 | 351 | 0.0 | 4.8 | 0.00 | 0.00 | 0.00 | 82 | 1019.3 |
| 20260507130924 | 13 | 346 | 0.0 | 0.0 | 0.00 | 0.00 | 0.00 | 84 | 1019.2 |
| 20260507130423 | 13 | 346 | 0.0 | 0.0 | 0.00 | 0.00 | 0.00 | 86 | 1019.2 |
| 20260507125921 | 12 | 346 | 0.0 | 0.0 | 0.00 | 0.00 | 0.00 | 87 | 1019.2 |
| 20260507125422 | 12 | 346 | 0.0 | 0.0 | 0.00 | 0.00 | 0.00 | 86 | 1019.1 |
| 20260507124856 | 12 | 271 | 0.0 | 0.0 | 0.00 | 0.00 | 0.00 | 88 | 1019.0 |
| 20260507124345 | 12 | 271 | 0.0 | 0.0 | 0.00 | 0.00 | 0.00 | 88 | 1018.9 |
| 20260507123846 | 11 | 271 | 0.0 | 0.0 | 0.00 | 0.00 | 0.00 | 88 | 1018.9 |
| 20260507123348 | 11 | 261 | 0.0 | 0.0 | 0.00 | 0.00 | 0.00 | 89 | 1019.0 |
| 20260507122826 | 11 | 338 | 0.0 | 0.0 | 0.00 | 0.00 | 0.00 | 89 | 1018.9 |
| 20260507122306 | 11 | 338 | 0.0 | 0.0 | 0.00 | 0.00 | 0.00 | 89 | 1018.9 |
| 20260507121736 | 11 | 338 | 0.0 | 0.0 | 0.00 | 0.00 | 0.00 | 89 | 1018.9 |
| 20260507121236 | 10 | 338 | 0.0 | 0.0 | 0.00 | 0.00 | 0.00 | 89 | 1018.8 |
| 20260507120715 | 10 | 338 | 0.0 | 0.0 | 0.00 | 0.00 | 0.00 | 88 | 1018.8 |
| 20260507120413 | 10 | 338 | 0.0 | 0.0 | 0.00 | 0.00 | 0.00 | 88 | 1018.6 |
| 20260507115654 | 10 | 338 | 0.0 | 0.0 | 0.00 | 0.00 | 0.00 | 88 | 1018.5 |
| 20260507115154 | 10 | 338 | 0.0 | 0.0 | 0.00 | 0.00 | 0.00 | 88 | 1018.4 |
| 20260507114919 | 10 | 338 | 0.0 | 0.0 | 0.00 | 0.00 | 0.00 | 88 | 1018.5 |
| 20260507114153 | 10 | 338 | 0.0 | 0.0 | 0.00 | 0.00 | 0.00 | 88 | 1018.4 |
| 20260507113915 | 10 | 338 | 0.0 | 0.0 | 0.00 | 0.00 | 0.00 | 88 | 1018.3 |
| 20260507113133 | 10 | 338 | 0.0 | 0.0 | 0.00 | 0.00 | 0.00 | 88 | 1018.3 |
| 20260507112610 | 10 | 338 | 0.0 | 0.0 | 0.00 | 0.00 | 0.00 | 88 | 1018.3 |
| 20260507112046 | 10 | 338 | 0.0 | 0.0 | 0.00 | 0.00 | 0.00 | 88 | 1018.3 |
| 20260507111546 | 10 | 338 | 0.0 | 0.0 | 0.00 | 0.00 | 0.00 | 88 | 1018.3 |
| 20260507111034 | 10 | 338 | 0.0 | 1.6 | 0.00 | 0.00 | 0.00 | 88 | 1018.2 |
| 20260507110534 | 10 | 338 | 0.0 | 1.6 | 0.00 | 0.00 | 0.00 | 88 | 1017.8 |
| 20260507110032 | 10 | 338 | 0.0 | 1.6 | 0.00 | 0.00 | 0.00 | 87 | 1017.6 |
| 20260507105529 | 10 | 338 | 0.0 | 1.6 | 0.00 | 0.00 | 0.00 | 87 | 1017.5 |
| 20260507105028 | 10 | 338 | 0.0 | 0.0 | 0.00 | 0.00 | 0.00 | 87 | 1017.3 |
| 20260507104726 | 10 | 338 | 0.0 | 0.0 | 0.00 | 0.00 | 0.00 | 87 | 1017.2 |
| 20260507103937 | 11 | 338 | 0.0 | 0.0 | 0.00 | 0.00 | 0.00 | 87 | 1017.1 |
| 20260507103410 | 11 | 334 | 0.0 | 1.6 | 0.00 | 0.00 | 0.00 | 87 | 1017.1 |
| 20260507102859 | 11 | 334 | 0.0 | 1.6 | 0.00 | 0.00 | 0.00 | 87 | 1017.1 |
| 20260507102338 | 10 | 15 | 0.0 | 0.0 | 0.00 | 0.00 | 0.00 | 87 | 1016.9 |
| 20260507101803 | 10 | 16 | 0.0 | 0.0 | 0.00 | 0.00 | 0.00 | 87 | 1016.9 |
| 20260507101238 | 10 | 16 | 0.0 | 0.0 | 0.00 | 0.00 | 0.00 | 87 | 1016.9 |
| 20260507100735 | 10 | 16 | 0.0 | 0.0 | 0.00 | 0.00 | 0.00 | 86 | 1017.0 |
| 20260507100435 | 10 | 16 | 0.0 | 0.0 | 0.00 | 0.00 | 0.00 | 86 | 1016.9 |
| 20260507095645 | 10 | 15 | 0.0 | 0.0 | 0.00 | 0.00 | 0.00 | 86 | 1016.8 |
| 20260507095118 | 10 | 16 | 0.0 | 0.0 | 0.00 | 0.00 | 0.00 | 85 | 1016.8 |
| 20260507094837 | 11 | 16 | 0.0 | 0.0 | 0.00 | 0.00 | 0.00 | 85 | 1016.7 |
| 20260507094335 | 11 | 16 | 0.0 | 0.0 | 0.00 | 0.00 | 0.00 | 85 | 1016.7 |
| 20260507093604 | 11 | 16 | 0.0 | 0.0 | 0.00 | 0.00 | 0.00 | 84 | 1016.7 |
| 20260507093102 | 11 | 16 | 0.0 | 0.0 | 0.00 | 0.00 | 0.00 | 84 | 1016.6 |
| 20260507092558 | 11 | 16 | 0.0 | 0.0 | 0.00 | 0.00 | 0.00 | 85 | 1016.6 |
| 20260507092054 | 11 | 15 | 0.0 | 0.0 | 0.00 | 0.00 | 0.00 | 84 | 1016.6 |
| 20260507091531 | 11 | 16 | 0.0 | 0.0 | 0.00 | 0.00 | 0.00 | 85 | 1016.6 |
| 20260507090959 | 11 | 16 | 0.0 | 0.0 | 0.00 | 0.00 | 0.00 | 84 | 1016.5 |
| 20260507090452 | 11 | 16 | 0.0 | 0.0 | 0.00 | 0.00 | 0.00 | 84 | 1016.6 |
| 20260507085951 | 11 | 15 | 0.0 | 0.0 | 0.00 | 0.00 | 0.00 | 84 | 1016.5 |
| 20260507085425 | 11 | 16 | 0.0 | 1.6 | 0.00 | 0.00 | 0.00 | 84 | 1016.5 |
| 20260507085120 | 11 | 16 | 0.0 | 1.6 | 0.00 | 0.00 | 0.00 | 84 | 1016.5 |
| 20260507084617 | 11 | 16 | 0.0 | 0.0 | 0.00 | 0.00 | 0.00 | 83 | 1016.3 |
| 20260507083828 | 12 | 15 | 0.0 | 4.8 | 0.00 | 0.00 | 0.00 | 83 | 1016.4 |
| 20260507083321 | 12 | 16 | 0.0 | 4.8 | 0.00 | 0.00 | 0.00 | 84 | 1016.4 |
| 20260507082820 | 12 | 349 | 0.0 | 1.6 | 0.00 | 0.00 | 0.00 | 84 | 1016.5 |
| 20260507082311 | 12 | 349 | 0.0 | 1.6 | 0.00 | 0.00 | 0.00 | 84 | 1016.4 |
| 20260507082301 | 12 | 347 | 0.0 | 1.6 | 0.00 | 0.00 | 0.00 | 84 | 1016.4 |
| 20260507081239 | 12 | 338 | 0.0 | 4.8 | 0.00 | 0.00 | 0.00 | 84 | 1016.2 |
| 20260507080739 | 12 | 6 | 0.0 | 3.2 | 0.00 | 0.00 | 0.00 | 84 | 1016.2 |
| 20260507080235 | 12 | 101 | 0.0 | 6.4 | 0.00 | 0.00 | 0.00 | 84 | 1016.1 |
| 20260507075732 | 12 | 143 | 1.6 | 6.4 | 0.00 | 0.00 | 0.00 | 84 | 1016.0 |
| 20260507075434 | 12 | 70 | 1.6 | 9.7 | 0.00 | 0.00 | 0.00 | 84 | 1016.0 |
| 20260507074638 | 12 | 17 | 1.6 | 9.7 | 0.00 | 0.00 | 0.00 | 84 | 1016.0 |
| 20260507074141 | 12 | 13 | 1.6 | 8.0 | 0.00 | 0.00 | 0.00 | 84 | 1015.9 |
| 20260507073825 | 12 | 340 | 1.6 | 6.4 | 0.00 | 0.00 | 0.00 | 83 | 1015.9 |
| 20260507073326 | 12 | 15 | 1.6 | 6.4 | 0.00 | 0.00 | 0.00 | 83 | 1015.9 |
| 20260507072536 | 12 | 348 | 3.2 | 9.7 | 0.00 | 0.00 | 0.00 | 83 | 1015.8 |
| 20260507072007 | 12 | 349 | 3.2 | 9.7 | 0.00 | 0.00 | 0.00 | 83 | 1016.0 |
| 20260507071734 | 12 | 9 | 1.6 | 8.0 | 0.00 | 0.00 | 0.00 | 83 | 1015.9 |
| 20260507071000 | 12 | 325 | 0.0 | 6.4 | 0.00 | 0.00 | 0.00 | 83 | 1016.0 |
| 20260507070457 | 12 | 6 | 0.0 | 4.8 | 0.00 | 0.00 | 0.00 | 83 | 1016.0 |
| 20260507065949 | 12 | 330 | 0.0 | 4.8 | 0.00 | 0.00 | 0.00 | 83 | 1016.1 |
| 20260507065713 | 12 | 31 | 0.0 | 6.4 | 0.00 | 0.00 | 0.00 | 83 | 1016.0 |
| 20260507064945 | 12 | 19 | 0.0 | 4.8 | 0.00 | 0.00 | 0.00 | 82 | 1016.0 |
| 20260507064439 | 12 | 355 | 0.0 | 3.2 | 0.00 | 0.00 | 0.00 | 82 | 1015.9 |
| 20260507063937 | 12 | 19 | 0.0 | 3.2 | 0.00 | 0.00 | 0.00 | 82 | 1015.8 |
| 20260507063408 | 12 | 356 | 0.0 | 3.2 | 0.00 | 0.00 | 0.00 | 81 | 1015.9 |
| 20260507062904 | 12 | 359 | 1.6 | 3.2 | 0.00 | 0.00 | 0.00 | 81 | 1015.8 |
| 20260507062339 | 13 | 6 | 1.6 | 4.8 | 0.00 | 0.00 | 0.00 | 81 | 1015.8 |
| 20260507061815 | 13 | 27 | 0.0 | 4.8 | 0.00 | 0.00 | 0.00 | 80 | 1015.7 |
| 20260507061246 | 13 | 83 | 0.0 | 6.4 | 0.00 | 0.00 | 0.00 | 80 | 1015.8 |
| 20260507060743 | 13 | 68 | 0.0 | 6.4 | 0.00 | 0.00 | 0.00 | 80 | 1015.7 |
| 20260507060510 | 13 | 9 | 0.0 | 8.0 | 0.00 | 0.00 | 0.00 | 79 | 1015.6 |
| 20260507055936 | 13 | 338 | 0.0 | 8.0 | 0.00 | 0.00 | 0.00 | 79 | 1015.7 |
| 20260507055210 | 13 | 82 | 0.0 | 6.4 | 0.00 | 0.00 | 0.00 | 79 | 1015.7 |
| 20260507054708 | 13 | 41 | 0.0 | 8.0 | 0.00 | 0.00 | 0.00 | 78 | 1015.7 |
| 20260507054206 | 13 | 59 | 0.0 | 8.0 | 0.00 | 0.00 | 0.00 | 78 | 1015.7 |
| 20260507053638 | 13 | 359 | 1.6 | 9.7 | 0.00 | 0.00 | 0.00 | 77 | 1015.7 |
| 20260507053111 | 13 | 63 | 1.6 | 9.7 | 0.00 | 0.00 | 0.00 | 77 | 1015.7 |
| 20260507052607 | 13 | 340 | 1.6 | 6.4 | 0.00 | 0.00 | 0.00 | 77 | 1015.8 |
| 20260507052103 | 13 | 89 | 1.6 | 6.4 | 0.00 | 0.00 | 0.00 | 77 | 1015.9 |
| 20260507051554 | 13 | 82 | 1.6 | 6.4 | 0.00 | 0.00 | 0.00 | 77 | 1015.9 |
| 20260507051053 | 13 | 46 | 1.6 | 4.8 | 0.00 | 0.00 | 0.00 | 77 | 1015.9 |
| 20260507050524 | 13 | 304 | 1.6 | 11.3 | 0.00 | 0.00 | 0.00 | 77 | 1015.9 |
| 20260507050022 | 14 | 14 | 1.6 | 11.3 | 0.00 | 0.00 | 0.00 | 77 | 1015.8 |
| 20260507045502 | 14 | 339 | 1.6 | 9.7 | 0.00 | 0.00 | 0.00 | 78 | 1015.8 |
| 20260507045002 | 14 | 60 | 1.6 | 11.3 | 0.00 | 0.00 | 0.00 | 77 | 1015.8 |
| 20260507044443 | 14 | 60 | 1.6 | 11.3 | 0.00 | 0.00 | 0.00 | 77 | 1015.8 |
| 20260507043941 | 14 | 336 | 1.6 | 11.3 | 0.00 | 0.00 | 0.00 | 77 | 1016.0 |
| 20260507043417 | 14 | 316 | 1.6 | 6.4 | 0.00 | 0.00 | 0.00 | 77 | 1015.9 |
| 20260507042850 | 14 | 264 | 1.6 | 4.8 | 0.00 | 0.00 | 0.00 | 77 | 1016.0 |
| 20260507042345 | 14 | 333 | 0.0 | 4.8 | 0.00 | 0.00 | 0.00 | 76 | 1016.2 |
| 20260507041843 | 14 | 16 | 0.0 | 4.8 | 0.00 | 0.00 | 0.00 | 76 | 1016.2 |
| 20260507041342 | 15 | 6 | 0.0 | 4.8 | 0.00 | 0.00 | 0.00 | 76 | 1016.3 |
| 20260507040814 | 15 | 351 | 1.6 | 8.0 | 0.00 | 0.00 | 0.00 | 76 | 1016.4 |
| 20260507040256 | 15 | 29 | 1.6 | 8.0 | 0.00 | 0.00 | 0.00 | 75 | 1016.3 |
| 20260507035734 | 15 | 329 | 3.2 | 9.7 | 0.00 | 0.00 | 0.00 | 75 | 1016.3 |
| 20260507035215 | 15 | 43 | 3.2 | 12.9 | 0.00 | 0.00 | 0.00 | 75 | 1016.3 |
| 20260507034718 | 15 | 6 | 3.2 | 12.9 | 0.00 | 0.00 | 0.00 | 75 | 1016.2 |
| 20260507034200 | 15 | 41 | 4.8 | 14.5 | 0.00 | 0.00 | 0.00 | 75 | 1016.3 |
| 20260507033643 | 15 | 36 | 4.8 | 14.5 | 0.00 | 0.00 | 0.00 | 75 | 1016.3 |
| 20260507033126 | 15 | 358 | 4.8 | 12.9 | 0.00 | 0.00 | 0.00 | 75 | 1016.1 |
| 20260507032628 | 15 | 359 | 4.8 | 11.3 | 0.00 | 0.00 | 0.00 | 75 | 1016.0 |
| 20260507032110 | 15 | 44 | 4.8 | 12.9 | 0.00 | 0.00 | 0.00 | 75 | 1015.9 |
| 20260507031553 | 15 | 12 | 3.2 | 11.3 | 0.00 | 0.00 | 0.00 | 75 | 1015.9 |
| 20260507031239 | 15 | 5 | 3.2 | 8.0 | 0.00 | 0.00 | 0.00 | 75 | 1015.9 |
| 20260507030505 | 15 | 0 | 3.2 | 9.7 | 0.00 | 0.00 | 0.00 | 75 | 1015.8 |
| 20260507030158 | 15 | 8 | 4.8 | 14.5 | 0.00 | 0.00 | 0.00 | 75 | 1015.6 |
| 20260507025433 | 15 | 324 | 4.8 | 14.5 | 0.00 | 0.00 | 0.00 | 75 | 1015.5 |
| 20260507025213 | 15 | 61 | 3.2 | 11.3 | 0.00 | 0.00 | 0.00 | 76 | 1015.4 |
| 20260507025118 | 15 | 10 | 3.2 | 9.7 | 0.00 | 0.00 | 0.00 | 76 | 1015.4 |
| 20260507023910 | 15 | 335 | 1.6 | 9.7 | 0.00 | 0.00 | 0.00 | 77 | 1015.3 |
| 20260507023344 | 15 | 345 | 1.6 | 8.0 | 0.00 | 0.00 | 0.00 | 77 | 1015.2 |
| 20260507022820 | 15 | 103 | 1.6 | 8.0 | 0.00 | 0.00 | 0.00 | 77 | 1015.2 |
| 20260507022255 | 15 | 80 | 1.6 | 8.0 | 0.00 | 0.00 | 0.00 | 77 | 1014.9 |
| 20260507021734 | 15 | 70 | 3.2 | 11.3 | 0.00 | 0.00 | 0.00 | 77 | 1014.9 |
| 20260507021450 | 15 | 68 | 3.2 | 11.3 | 0.00 | 0.00 | 0.00 | 77 | 1014.8 |
| 20260507020729 | 15 | 27 | 3.2 | 14.5 | 0.00 | 0.00 | 0.00 | 78 | 1014.8 |
| 20260507020203 | 15 | 68 | 4.8 | 14.5 | 0.00 | 0.00 | 0.00 | 78 | 1014.7 |
| 20260507015858 | 15 | 26 | 4.8 | 20.9 | 0.00 | 0.00 | 0.00 | 78 | 1014.6 |
| 20260507015111 | 15 | 323 | 3.2 | 12.9 | 0.00 | 0.00 | 0.00 | 78 | 1014.5 |
| 20260507014607 | 15 | 76 | 4.8 | 17.7 | 0.00 | 0.00 | 0.00 | 77 | 1014.4 |
| 20260507014103 | 15 | 335 | 6.4 | 17.7 | 0.00 | 0.00 | 0.00 | 77 | 1014.2 |
| 20260507013822 | 15 | 34 | 6.4 | 16.1 | 0.00 | 0.00 | 0.00 | 77 | 1014.1 |
| 20260507013052 | 15 | 24 | 4.8 | 16.1 | 0.00 | 0.00 | 0.00 | 77 | 1014.0 |
| 20260507012548 | 15 | 323 | 4.8 | 16.1 | 0.00 | 0.00 | 0.00 | 78 | 1014.0 |
| 20260507012050 | 15 | 15 | 3.2 | 16.1 | 0.00 | 0.00 | 0.00 | 78 | 1013.8 |
| 20260507011523 | 15 | 19 | 4.8 | 12.9 | 0.00 | 0.00 | 0.00 | 78 | 1013.7 |
| 20260507011239 | 15 | 1 | 3.2 | 12.9 | 0.00 | 0.00 | 0.00 | 78 | 1013.6 |
| 20260507010516 | 15 | 1 | 3.2 | 12.9 | 0.00 | 0.00 | 0.00 | 78 | 1013.5 |
| 20260507010208 | 15 | 25 | 4.8 | 14.5 | 0.00 | 0.00 | 0.00 | 78 | 1013.6 |
| 20260507005706 | 15 | 337 | 4.8 | 14.5 | 0.00 | 0.00 | 0.00 | 79 | 1013.6 |
| 20260507004941 | 15 | 354 | 3.2 | 11.3 | 0.00 | 0.00 | 0.00 | 79 | 1013.6 |
| 20260507004703 | 15 | 6 | 1.6 | 6.4 | 0.00 | 0.00 | 0.00 | 80 | 1013.6 |
| 20260507003914 | 15 | 286 | 0.0 | 4.8 | 0.00 | 0.00 | 0.00 | 80 | 1013.4 |
| 20260507003345 | 15 | 295 | 1.6 | 6.4 | 0.00 | 0.00 | 0.00 | 80 | 1013.4 |
| 20260507002844 | 15 | 38 | 1.6 | 6.4 | 0.00 | 0.00 | 0.00 | 80 | 1013.3 |
| 20260507002317 | 15 | 338 | 1.6 | 6.4 | 0.00 | 0.00 | 0.00 | 79 | 1013.3 |
| 20260507001813 | 15 | 67 | 1.6 | 6.4 | 0.00 | 0.00 | 0.00 | 79 | 1013.3 |
| 20260507001309 | 15 | 63 | 3.2 | 12.9 | 0.00 | 0.00 | 0.00 | 79 | 1013.2 |
| 20260507000807 | 15 | 11 | 4.8 | 14.5 | 0.00 | 0.00 | 0.00 | 78 | 1013.0 |
| 20260507000306 | 15 | 296 | 4.8 | 14.5 | 0.00 | 0.00 | 0.00 | 78 | 1013.0 |
| 20260506235741 | 15 | 342 | 4.8 | 14.5 | 0.00 | 0.00 | 0.00 | 78 | 1012.9 |
| 20260506235215 | 15 | 322 | 3.2 | 9.7 | 0.00 | 0.00 | 0.00 | 78 | 1013.1 |
| 20260506234650 | 15 | 79 | 1.6 | 11.3 | 0.00 | 0.00 | 0.00 | 78 | 1013.1 |
| 20260506234416 | 15 | 1 | 1.6 | 11.3 | 0.00 | 0.00 | 0.00 | 77 | 1013.1 |
| 20260506233647 | 15 | 359 | 4.8 | 17.7 | 0.00 | 0.00 | 0.00 | 77 | 1013.1 |
| 20260506233150 | 15 | 352 | 4.8 | 17.7 | 0.00 | 0.00 | 0.00 | 76 | 1013.0 |
| 20260506232646 | 15 | 39 | 3.2 | 14.5 | 0.00 | 0.00 | 0.00 | 77 | 1012.9 |
| 20260506232149 | 15 | 357 | 4.8 | 12.9 | 0.00 | 0.00 | 0.00 | 77 | 1012.8 |
| 20260506231619 | 15 | 302 | 4.8 | 14.5 | 0.00 | 0.00 | 0.00 | 76 | 1012.7 |
| 20260506231118 | 15 | 344 | 4.8 | 11.3 | 0.00 | 0.00 | 0.00 | 77 | 1012.7 |
| 20260506230614 | 15 | 24 | 4.8 | 12.9 | 0.00 | 0.00 | 0.00 | 77 | 1012.8 |
| 20260506230337 | 15 | 341 | 4.8 | 9.7 | 0.00 | 0.00 | 0.00 | 78 | 1012.4 |
| 20260506225607 | 15 | 79 | 4.8 | 12.9 | 0.00 | 0.00 | 0.00 | 78 | 1012.4 |
| 20260506225107 | 15 | 335 | 3.2 | 9.7 | 0.00 | 0.00 | 0.00 | 78 | 1012.5 |
| 20260506224537 | 15 | 4 | 3.2 | 9.7 | 0.00 | 0.00 | 0.00 | 78 | 1012.7 |
| 20260506224036 | 15 | 36 | 4.8 | 12.9 | 0.00 | 0.00 | 0.00 | 78 | 1012.8 |
| 20260506223512 | 14 | 327 | 6.4 | 14.5 | 0.00 | 0.00 | 0.00 | 78 | 1012.7 |
| 20260506222941 | 14 | 8 | 6.4 | 14.5 | 0.00 | 0.00 | 0.00 | 78 | 1012.7 |
| 20260506222439 | 14 | 58 | 6.4 | 16.1 | 0.00 | 0.00 | 0.00 | 78 | 1012.7 |
| 20260506221915 | 14 | 30 | 6.4 | 16.1 | 0.00 | 0.00 | 0.00 | 78 | 1012.6 |
| 20260506221352 | 14 | 307 | 6.4 | 16.1 | 0.00 | 0.00 | 0.00 | 79 | 1012.4 |
| 20260506221112 | 14 | 27 | 6.4 | 17.7 | 0.00 | 0.00 | 0.00 | 79 | 1012.0 |
| 20260506220349 | 14 | 13 | 6.4 | 17.7 | 0.00 | 0.00 | 0.00 | 79 | 1012.0 |
| 20260506215849 | 14 | 314 | 4.8 | 12.9 | 0.00 | 0.00 | 0.00 | 79 | 1012.2 |
| 20260506215351 | 15 | 46 | 3.2 | 11.3 | 0.00 | 0.00 | 0.00 | 79 | 1012.2 |
| 20260506214826 | 15 | 36 | 3.2 | 11.3 | 0.00 | 0.00 | 0.00 | 77 | 1012.3 |
| 20260506214257 | 15 | 328 | 3.2 | 12.9 | 0.00 | 0.00 | 0.00 | 77 | 1012.1 |
| 20260506214023 | 15 | 22 | 4.8 | 12.9 | 0.00 | 0.00 | 0.00 | 75 | 1012.5 |
| 20260506213517 | 15 | 300 | 4.8 | 14.5 | 0.00 | 0.00 | 0.00 | 73 | 1012.3 |
| 20260506212751 | 15 | 4 | 3.2 | 14.5 | 0.00 | 0.00 | 0.00 | 73 | 1012.2 |
| 20260506212222 | 15 | 351 | 3.2 | 9.7 | 0.00 | 0.00 | 0.00 | 73 | 1012.2 |
| 20260506211718 | 15 | 7 | 3.2 | 9.7 | 0.00 | 0.00 | 0.00 | 73 | 1012.3 |
| 20260506211151 | 15 | 38 | 3.2 | 9.7 | 0.00 | 0.00 | 0.00 | 74 | 1012.4 |
| 20260506210645 | 15 | 55 | 4.8 | 9.7 | 0.00 | 0.00 | 0.00 | 74 | 1012.2 |
| 20260506210406 | 15 | 316 | 4.8 | 14.5 | 0.00 | 0.00 | 0.00 | 73 | 1012.5 |
| 20260506205635 | 15 | 330 | 4.8 | 14.5 | 0.00 | 0.00 | 0.00 | 73 | 1012.5 |
| 20260506205133 | 15 | 341 | 4.8 | 14.5 | 0.00 | 0.00 | 0.00 | 74 | 1012.4 |
| 20260506204832 | 15 | 11 | 6.4 | 14.5 | 0.00 | 0.00 | 0.00 | 74 | 1012.6 |
| 20260506204039 | 15 | 353 | 6.4 | 12.9 | 0.00 | 0.00 | 0.00 | 73 | 1012.6 |
| 20260506203538 | 15 | 65 | 4.8 | 12.9 | 0.00 | 0.00 | 0.00 | 73 | 1012.7 |